Volver al catálogo

FENGYUN 1C DEB

ActivoSSO
NORAD 30022·DEBRIS·🇨🇳 China

Lanzado May 10, 1999 desde Taiyuan Satellite Launch Center

Loading…

Próximos Pases (próximas 24 horas)

TLE

ActualizadoSource: Space-Track

Época: Sep 14, 2026, 02:57 UTC

1 30022U 99025MX  26257.12338916  .00000029  00000-0  32900-4 0  9996
2 30022  99.0403 118.1989 0067033 199.0689 313.2935 14.23207361 21077

Sigue FENGYUN 1C DEB en tiempo real con AllMySat

Download on the App Store